This demonstration page uses our WeatherBlox Daily Observations layout. Learn more.

Left ArrowRight Arrow

39.29038, -76.61219

Hourly Observations for August 5, 2015

Temp ( °F °C ) Dew Point ( °F °C ) Humidity (%) Winds ( mph kmh ) Pressure ( in mb ) Visibility ( mi km ) Precip ( " mm )
12:54 am 00:54 Clear 85 29.5 38 3.1 18 18 undefined N/A 29.78 1008 N/A 0.00 0.00
1:54 am 01:54 undefined 76 24.4 70 21.1 82 82 undefined N/A 29.93 1014 N/A 0.00 0.00
2:54 am 02:54 Mostly Cloudy 77 25 66 18.9 69 69 undefined N/A 29.93 1014 N/A 0.00 0.00
3:54 am 03:54 undefined 75 23.9 68 20 79 79 undefined N/A 29.93 1014 N/A 0.00 0.00
4:54 am 04:54 undefined 74 23.3 68 20 82 82 undefined N/A 29.92 1013 N/A 0.00 0.00
5:54 am 05:54 Cloudy 75 23.9 67 19.4 76 76 undefined N/A 29.93 1014 N/A 0.00 0.00
6:54 am 06:54 Cloudy 74 23.3 66 18.9 76 76 undefined N/A 30.00 1016 N/A 0.00 0.00
7:54 am 07:54 undefined 75 23.9 65 18.3 71 71 undefined N/A 29.96 1014 N/A 0.00 0.00
8:54 am 08:54 Mostly Sunny 78 25.6 64 17.8 62 62 undefined N/A 29.96 1015 N/A 0.00 0.00
9:54 am 09:54 undefined 83 28.3 59 15 44 44 undefined N/A 29.96 1014 N/A 0.00 0.00
10:54 am 10:54 undefined 84 28.9 58 14.4 41 41 undefined N/A 29.96 1015 N/A 0.00 0.00
11:54 am 11:54 Partly Cloudy 87 30.6 58 14.4 37 37 undefined N/A 29.96 1014 N/A 0.00 0.00
12:54 pm 12:54 undefined 86 30 58 14.4 39 39 undefined N/A 29.94 1014 N/A 0.00 0.00
1:54 pm 13:54 undefined 85 29.4 56 13.3 37 37 undefined N/A 29.93 1014 N/A 0.00 0.00
2:54 pm 14:54 undefined 87 30.6 55 12.8 34 34 undefined N/A 29.92 1013 N/A 0.00 0.00
3:54 pm 15:54 Mostly Sunny 86 30 57 13.9 37 37 undefined N/A 29.93 1013 N/A 0.00 0.00
4:54 pm 16:54 undefined 88 31.1 55 12.8 33 33 undefined N/A 29.92 1013 N/A 0.00 0.00
5:54 pm 17:54 undefined 87 30.6 55 12.8 34 34 undefined N/A 29.92 1013 N/A 0.00 0.00
6:54 pm 18:54 undefined 86 30 55 12.8 35 35 undefined N/A 29.92 1013 N/A 0.00 0.00
7:54 pm 19:54 undefined 85 29.4 54 12.2 35 35 undefined N/A 29.93 1013 N/A 0.00 0.00
8:54 pm 20:54 undefined 84 28.9 55 12.8 37 37 undefined N/A 29.94 1014 N/A 0.00 0.00
9:54 pm 21:54 undefined 82 27.8 55 12.8 40 40 undefined N/A 29.96 1015 N/A 0.00 0.00
10:54 pm 22:54 undefined 80 26.7 55 12.8 42 42 undefined N/A 29.97 1015 N/A 0.00 0.00
11:54 pm 23:54 undefined 78 25.6 54 12.2 43 43 undefined N/A 29.98 1015 N/A 0.00 0.00

Powered by AerisWeather